Location: Unspecified
(0.0000°N, 0.0000°E)
Time: 07:59:40
(UTC+00:00)

O/OREOS (USA 219) - Pass Details

Date: 25 May 2021
Orbit: 621 x 646 km, 72.0° (Epoch: 22 May)

Event Time Altitude Azimuth Distance (km) Brightness Sun altitude
Exits shadow 03:12:18 12° 34° (NNE) 1,876 ? -37.9°
Drops below altitude 10° 03:12:35 10° 33° (NNE) 1,981 ? -37.9°
Sets 03:14:54 0° 26° (NNE) 2,886 ? -37.3°
